Погода в Метростроевском

Россия / Тульская область     54°24′15″N   38°12′06″E
темп.,
°C
ветер,
м/с
пор.,
м/с
влажн.,
%
обл.,
%
осадки,
мм/ч
давл.,
гПа
погр.,
м
20 апреля, вт
вт2000:00+3в71291100 0.3 1022823
03:00+3всв61293100 0.4 1021653
06:00+3в61285100 0.0 1020551
09:00+4в61094100 0.0 1020718
12:00+2всв61196100 0.1 1019563
15:00+1всв51299100 2.2 1017440
18:00+3в71397100 0.6 1014697
21:00+2в71397100 0.9 1012696
21 апреля, ср
ср2100:000св615100100 6.3 1007486
03:000ссв71399100 11.9 1001518
06:000зюз46100100 1.8 1000319
09:00+1юз59100100 1.9 1003535
12:00+2юз61098100 0.0 1005684
15:00+3юз61197100 0.1 1008735
18:00+3юз51195100 0.0 1010584
21:00+3ююз4996100 0.0 1012291
22 апреля, чт
чт2200:00+3ююз3797100 0.1 1013190
03:00+3ююз3894100 0.1 1014193
06:00+3юз3694100 0.0 1015148
09:00+6юз358598 0.0 1017464
12:00+9юз566783 0.2 10171299
15:00+11юз465686 0.6 10171702
18:00+10ююз356852 0.2 1018289
21:00+6ю33815 0.2 101940
23 апреля, пт
пт2300:00+5ююв36845 0.0 101988
03:00+5ююв36902 0.0 1018100
06:00+5ююв49945 0.0 1018173
09:00+11ю58775 0.1 1017452
12:00+15ююз68615 0.1 10161234
15:00+16ююз8105596 1.5 10151565
18:00+15ю610585 0.5 1014446
21:00+10ююв511805 0.5 1014227
24 апреля, сб
сб2400:00+10ю6148045 0.0 1013375
03:00+8ю614835 0.0 1011400
06:00+7ю4108835 0.0 1010333
09:00+8зюз5884100 0.1 1009768
12:00+3сз5797100 1.6 1009395
15:00+3зсз4896100 4.3 1009532
18:00+6зсз3575100 0.2 1008929
21:00+4юз368878 0.6 1007202